Notices

What's New in latest Release from April 7th, 2021:

- Updated Glossary, including Speed of Maximum Gust, and Total Hourly Precipitation

- Updated national and regional climate services offices contacts and prices information

- Addition of station inventory lists for 1981-2010, 1971-2000, and 1961-1990 Normals.

If you haven't already, please take our survey and provide feedback about our website: https://eccc.sondage-survey.ca/f/LanguageSelection.aspx?s=442ca660-fcf1-47c0-95a9-59707d6fd709

Hourly Data Report for October 16, 2019

QUALICUM BEACH AIRPORT
BRITISH COLUMBIA
Current Station Operator: ECCC - MSC

49°20'14.000" N
124°23'38.000" W
58.20 m
1026562
71766
VOQ

Download Data

Hourly Data (October 2019)
Hourly Data Report for October 16, 2019
TIME
LST
Temp Definition
°C
Dew Point Definition
°C
Rel Hum Definition
%
Precip. Amount Definition
mm

Wind Dir Definition
10's deg

Wind Spd Definition
km/h
Visibility Definition
km
Stn Press Definition
kPa
Hmdx Definition


Wind Chill Definition


Weather Definition


00:00 10.2 9.0 92 0.1 13 22   100.10     LegendNANA
01:00 10.1 9.1 93 0.3 13 24   100.05     LegendNANA
02:00 10.1 9.0 93 0.4 12 26   99.96     LegendNANA
03:00 10.2 8.9 92 0.0 13 26   99.89     LegendNANA
04:00 10.0 8.8 93 0.3 12 26   99.86     LegendNANA
05:00 9.8 8.7 93 0.5 13 25   99.81     LegendNANA
06:00 9.8 8.8 94 0.7 13 20   99.78     LegendNANA
07:00 10.0 9.1 94 0.2 12 21   99.72     LegendNANA
08:00 10.1 9.2 94 0.0 12 26   99.61     LegendNANA
09:00 10.6 9.2 91 0.1 12 25   99.54     LegendNANA
10:00 11.6 9.8 89 0.0 11 20   99.45     LegendNANA
11:00 11.5 9.9 90 0.0 11 15   99.41     LegendNANA
12:00 11.5 10.2 92 0.4 12 14   99.41     LegendNANA
13:00 11.3 10.4 94 2.0 34 2   99.52     LegendNANA
14:00 11.1 10.4 95 2.3 14 12   99.38     LegendNANA
15:00 10.8 8.0 83 0.0 15 14   99.29     LegendNANA
16:00 10.8 7.8 82 0.0 19 6   99.38     LegendNANA
17:00 9.8 8.7 93 0.1 20 4   99.39     LegendNANA
18:00 10.2 6.2 76 0.3 16 9   99.36     LegendNANA
19:00 9.5 6.1 79 0.0 18 6   99.37     LegendNANA
20:00 8.2 6.9 92 0.0 28 4   99.41     LegendNANA
21:00 7.0 6.1 94 0.0 4 2   99.43     LegendNANA
22:00 8.4 6.1 86 0.0 15 12   99.43     LegendNANA
23:00 9.0 6.1 82 0.0 15 10   99.42     LegendNANA

Notes on Data Quality.

Legend

  • E = Estimated
  • M = Missing
  • NA = Not Available*
  • [empty] = Indicates an unobserved value
Date modified: